DAL1913 TJSJ-KDTW

Flight info

Callsign DAL1913
Flight time N/A
Altitude 32000
Route ACONY3 PALDE DCT DONQU DCT LETON/M080F340 L451 JAINS/N0463F340 Y327 CLOWR DCT GARIC DCT LIB DCT PSK DCT BKW DCT JAMOX BONZZ2
Aircraft B739/M-SDE2E3FGHIRWXY/LB1

Departure

Time N/A
Airport Luis Munoz Marin International Airport (TJSJ)

Arrival

Time 2026-05-04 21:19
Airport Detroit Metropolitan Wayne County Airport (KDTW)
Time Latitude Longitude Altitude Speed Heading
2026-05-04 18:31 25.90363 -72.57307 32014 ft 469 kts 324°
2026-05-04 18:31 25.93178 -72.59128 32009 ft 469 kts 324°
2026-05-04 18:32 25.98816 -72.62776 32008 ft 468 kts 324°
2026-05-04 18:32 26.04402 -72.66395 32001 ft 467 kts 324°
2026-05-04 18:33 26.10001 -72.70027 32008 ft 466 kts 324°
2026-05-04 18:33 26.15598 -72.73662 32015 ft 465 kts 324°
2026-05-04 18:34 26.21186 -72.77296 32012 ft 465 kts 324°
2026-05-04 18:34 26.26771 -72.80931 32006 ft 465 kts 324°
2026-05-04 18:35 26.32313 -72.84543 32008 ft 465 kts 324°
2026-05-04 18:35 26.37893 -72.88183 32009 ft 465 kts 324°
2026-05-04 18:36 26.43470 -72.91826 32040 ft 465 kts 323°
2026-05-04 18:36 26.49053 -72.95477 32030 ft 466 kts 323°
2026-05-04 18:37 26.54607 -72.99111 32014 ft 465 kts 323°
2026-05-04 18:37 26.60193 -73.02772 32011 ft 465 kts 323°
2026-05-04 18:38 26.65774 -73.06434 32008 ft 465 kts 323°
2026-05-04 18:38 26.71354 -73.10099 32004 ft 465 kts 323°
2026-05-04 18:39 26.76925 -73.13763 32007 ft 465 kts 323°
2026-05-04 18:39 26.82460 -73.17407 32010 ft 465 kts 323°
2026-05-04 18:40 26.88031 -73.21079 32014 ft 465 kts 323°
2026-05-04 18:40 26.93603 -73.24756 32012 ft 465 kts 323°
2026-05-04 18:41 26.99173 -73.28436 32005 ft 465 kts 323°
2026-05-04 18:41 27.04696 -73.32089 32011 ft 464 kts 322°
2026-05-04 18:42 27.10259 -73.35773 32016 ft 465 kts 322°
2026-05-04 18:42 27.15833 -73.39469 32011 ft 466 kts 322°
2026-05-04 18:43 27.21422 -73.43179 31999 ft 467 kts 322°
2026-05-04 18:43 27.27007 -73.46889 31999 ft 466 kts 322°
2026-05-04 18:44 27.32537 -73.50567 32009 ft 465 kts 322°
2026-05-04 18:44 27.38105 -73.54277 32148 ft 467 kts 321°
2026-05-04 18:44 27.40900 -73.56141 32357 ft 467 kts 321°
2026-05-04 18:45 27.43687 -73.57999 32624 ft 465 kts 321°
2026-05-04 18:45 27.46472 -73.59857 32831 ft 465 kts 321°
2026-05-04 18:45 27.49257 -73.61718 32966 ft 466 kts 321°
2026-05-04 18:45 27.52011 -73.63558 33108 ft 466 kts 321°
2026-05-04 18:46 27.54797 -73.65422 33299 ft 466 kts 321°
2026-05-04 18:46 27.57577 -73.67281 33531 ft 464 kts 321°
2026-05-04 18:46 27.60356 -73.69141 33726 ft 464 kts 321°
2026-05-04 18:46 27.63129 -73.70998 33874 ft 464 kts 321°
2026-05-04 18:47 27.65901 -73.72855 33990 ft 463 kts 321°
2026-05-04 18:47 27.71447 -73.76578 34049 ft 465 kts 321°
2026-05-04 18:48 27.76968 -73.80287 34040 ft 465 kts 321°
2026-05-04 18:48 27.82536 -73.84031 34035 ft 465 kts 321°
2026-05-04 18:49 27.88095 -73.87773 34040 ft 465 kts 321°
2026-05-04 18:49 27.93657 -73.91522 34036 ft 465 kts 321°
2026-05-04 18:50 27.99177 -73.95248 34041 ft 465 kts 321°
2026-05-04 18:50 28.04733 -73.99002 34040 ft 465 kts 321°
2026-05-04 18:51 28.10272 -74.02750 34046 ft 463 kts 322°
2026-05-04 18:51 28.15790 -74.06487 34035 ft 461 kts 322°
2026-05-04 18:52 28.21274 -74.10207 34035 ft 459 kts 322°
2026-05-04 18:52 28.26583 -74.14059 34040 ft 451 kts 316°
2026-05-04 18:53 28.31501 -74.18430 34038 ft 449 kts 314°
2026-05-04 18:53 28.36371 -74.22878 34054 ft 449 kts 314°
2026-05-04 18:54 28.41256 -74.27291 34045 ft 449 kts 314°
2026-05-04 18:54 28.46131 -74.31655 34045 ft 449 kts 315°
2026-05-04 18:55 28.51042 -74.36040 34067 ft 449 kts 315°
2026-05-04 18:55 28.58389 -74.42609 34051 ft 447 kts 315°
2026-05-04 18:56 28.63269 -74.46980 34057 ft 446 kts 315°
2026-05-04 18:56 28.68144 -74.51352 34063 ft 445 kts 314°
2026-05-04 18:57 28.72964 -74.55680 34063 ft 443 kts 314°
2026-05-04 18:57 28.77801 -74.60029 34063 ft 442 kts 314°
2026-05-04 18:58 28.82626 -74.64373 34069 ft 442 kts 314°
2026-05-04 18:58 28.87444 -74.68717 34073 ft 441 kts 314°
2026-05-04 18:59 28.92225 -74.73032 34072 ft 441 kts 314°
2026-05-04 18:59 28.97039 -74.77382 34098 ft 441 kts 314°
2026-05-04 19:00 29.01844 -74.81728 34077 ft 440 kts 314°
2026-05-04 19:00 29.06635 -74.86066 34072 ft 439 kts 314°
2026-05-04 19:01 29.11379 -74.90368 34075 ft 438 kts 314°
2026-05-04 19:01 29.16141 -74.94693 34077 ft 437 kts 314°
2026-05-04 19:02 29.20909 -74.99028 34083 ft 437 kts 314°
2026-05-04 19:02 29.25677 -75.03368 34083 ft 437 kts 314°
2026-05-04 19:03 29.30434 -75.07702 34081 ft 436 kts 314°
2026-05-04 19:03 29.35133 -75.11986 34078 ft 433 kts 314°
2026-05-04 19:04 29.39832 -75.16278 34080 ft 431 kts 314°
2026-05-04 19:04 29.44506 -75.20554 34085 ft 429 kts 314°
2026-05-04 19:05 29.49165 -75.24821 34087 ft 428 kts 314°
2026-05-04 19:05 29.53819 -75.29089 34092 ft 428 kts 314°
2026-05-04 19:06 29.58445 -75.33337 34145 ft 428 kts 314°
2026-05-04 19:06 29.63101 -75.37616 34111 ft 428 kts 314°
2026-05-04 19:07 29.67751 -75.41894 34088 ft 428 kts 314°
2026-05-04 19:07 29.72393 -75.46170 34112 ft 427 kts 314°
2026-05-04 19:08 29.76986 -75.50407 34100 ft 426 kts 314°
2026-05-04 19:08 29.81600 -75.54668 34103 ft 425 kts 313°
2026-05-04 19:09 29.86205 -75.58926 34104 ft 424 kts 313°
2026-05-04 19:09 29.90803 -75.63184 34111 ft 424 kts 313°
2026-05-04 19:10 29.95372 -75.67419 34112 ft 424 kts 313°
2026-05-04 19:10 29.99972 -75.71689 34112 ft 425 kts 313°
2026-05-04 19:11 30.04575 -75.75966 34114 ft 425 kts 313°
2026-05-04 19:11 30.09179 -75.80249 34124 ft 425 kts 313°
2026-05-04 19:12 30.16079 -75.86678 34110 ft 424 kts 313°
2026-05-04 19:13 30.20638 -75.90932 34141 ft 424 kts 313°
2026-05-04 19:13 30.25226 -75.95219 34122 ft 423 kts 313°
2026-05-04 19:14 30.29796 -75.99494 34112 ft 422 kts 313°
2026-05-04 19:14 30.34359 -76.03767 34117 ft 422 kts 313°
2026-05-04 19:15 30.38887 -76.08015 34117 ft 421 kts 313°
2026-05-04 19:15 30.43435 -76.12285 34121 ft 421 kts 313°
2026-05-04 19:16 30.47217 -76.15841 34138 ft 421 kts 313°
2026-05-04 19:16 30.51764 -76.20121 34162 ft 421 kts 313°
2026-05-04 19:17 30.56312 -76.24406 34127 ft 421 kts 313°
2026-05-04 19:17 30.61595 -76.29390 34128 ft 421 kts 313°
2026-05-04 19:18 30.65396 -76.32981 34128 ft 420 kts 313°
2026-05-04 19:18 30.69898 -76.37239 34130 ft 420 kts 313°
2026-05-04 19:19 30.74427 -76.41529 34130 ft 420 kts 313°
2026-05-04 19:19 30.78958 -76.45825 34127 ft 420 kts 313°
2026-05-04 19:20 30.83489 -76.50128 34129 ft 421 kts 313°
2026-05-04 19:20 30.88033 -76.54448 34137 ft 422 kts 313°
2026-05-04 19:21 30.92545 -76.58741 34131 ft 422 kts 313°
2026-05-04 19:21 30.97083 -76.63066 34134 ft 422 kts 313°
2026-05-04 19:22 31.01624 -76.67398 34132 ft 421 kts 313°
2026-05-04 19:22 31.06156 -76.71728 34133 ft 421 kts 313°
2026-05-04 19:23 31.10653 -76.76030 34133 ft 421 kts 313°
2026-05-04 19:23 31.15191 -76.80379 34142 ft 423 kts 313°
2026-05-04 19:24 31.19740 -76.84742 34134 ft 423 kts 313°
2026-05-04 19:24 31.24290 -76.89111 34142 ft 423 kts 313°
2026-05-04 19:25 31.28802 -76.93450 34135 ft 423 kts 313°
2026-05-04 19:25 31.33342 -76.97820 34131 ft 422 kts 313°
2026-05-04 19:26 31.38376 -77.01547 34137 ft 438 kts 327°
2026-05-04 19:26 31.43975 -77.04395 34136 ft 441 kts 328°
2026-05-04 19:27 31.49609 -77.07255 34137 ft 442 kts 328°
2026-05-04 19:27 31.55244 -77.10153 34141 ft 443 kts 328°
2026-05-04 19:28 31.60852 -77.13057 34133 ft 444 kts 328°
2026-05-04 19:28 31.66510 -77.15995 34140 ft 444 kts 328°
2026-05-04 19:29 31.72166 -77.18936 34143 ft 446 kts 328°
2026-05-04 19:29 31.77846 -77.21893 34142 ft 447 kts 328°
2026-05-04 19:30 31.83494 -77.24836 34145 ft 447 kts 328°
2026-05-04 19:30 31.89178 -77.27802 34136 ft 447 kts 328°
2026-05-04 19:31 31.94856 -77.30768 34139 ft 446 kts 328°
2026-05-04 19:31 32.00524 -77.33735 34151 ft 446 kts 328°
2026-05-04 19:32 32.06204 -77.36713 34146 ft 447 kts 328°
2026-05-04 19:32 32.11853 -77.39677 34135 ft 447 kts 328°
2026-05-04 19:33 32.17542 -77.42667 34136 ft 448 kts 328°
2026-05-04 19:33 32.23233 -77.45661 34133 ft 448 kts 328°
2026-05-04 19:34 32.29024 -77.48444 34128 ft 456 kts 337°
2026-05-04 19:34 32.35187 -77.50343 34135 ft 459 kts 339°
2026-05-04 19:35 32.41391 -77.52168 34131 ft 459 kts 339°
2026-05-04 19:35 32.47540 -77.54028 34133 ft 459 kts 338°
2026-05-04 19:36 32.53719 -77.55937 34130 ft 459 kts 338°
2026-05-04 19:36 32.59907 -77.57864 34136 ft 460 kts 338°
2026-05-04 19:37 32.66093 -77.59792 34141 ft 460 kts 338°
2026-05-04 19:37 32.72243 -77.61710 34118 ft 460 kts 338°
2026-05-04 19:38 32.78422 -77.63639 34134 ft 459 kts 338°
2026-05-04 19:38 32.84604 -77.65572 34122 ft 459 kts 338°
2026-05-04 19:39 32.90768 -77.67502 34124 ft 458 kts 338°
2026-05-04 19:39 32.96936 -77.69437 34121 ft 458 kts 338°
2026-05-04 19:40 33.03098 -77.71372 34117 ft 458 kts 338°
2026-05-04 19:40 33.09219 -77.73298 34144 ft 458 kts 338°
2026-05-04 19:41 33.15391 -77.75242 34126 ft 459 kts 338°
2026-05-04 19:41 33.21563 -77.77189 34122 ft 459 kts 338°
2026-05-04 19:42 33.27738 -77.79139 34117 ft 459 kts 338°
2026-05-04 19:42 33.33918 -77.81094 34115 ft 459 kts 338°
2026-05-04 19:43 33.40058 -77.83039 34121 ft 460 kts 338°
2026-05-04 19:43 33.46247 -77.85003 34114 ft 460 kts 338°
2026-05-04 19:44 33.52435 -77.86969 34114 ft 460 kts 338°
2026-05-04 19:44 33.58619 -77.88937 34114 ft 460 kts 338°
2026-05-04 19:45 33.64811 -77.90910 34132 ft 461 kts 338°
2026-05-04 19:45 33.70961 -77.92874 34116 ft 461 kts 338°
2026-05-04 19:46 33.77160 -77.94855 34129 ft 461 kts 338°
2026-05-04 19:46 33.83347 -77.96836 34115 ft 460 kts 339°
2026-05-04 19:47 33.89260 -77.99494 34137 ft 447 kts 324°
2026-05-04 19:47 33.94376 -78.03610 34127 ft 442 kts 319°
2026-05-04 19:48 33.99389 -78.07808 34120 ft 442 kts 319°
2026-05-04 19:48 34.04450 -78.12011 34117 ft 442 kts 320°
2026-05-04 19:49 34.09524 -78.16199 34107 ft 442 kts 320°
2026-05-04 19:49 34.14600 -78.20383 34107 ft 442 kts 320°
2026-05-04 19:50 34.19675 -78.24571 34093 ft 442 kts 320°
2026-05-04 19:50 34.24716 -78.28737 34090 ft 442 kts 320°
2026-05-04 19:51 34.29789 -78.32937 34081 ft 441 kts 320°
2026-05-04 19:51 34.34853 -78.37136 34082 ft 441 kts 320°
2026-05-04 19:52 34.39885 -78.41315 34073 ft 441 kts 320°
2026-05-04 19:52 34.44942 -78.45521 34101 ft 441 kts 320°
2026-05-04 19:53 34.49997 -78.49731 34076 ft 441 kts 320°
2026-05-04 19:53 34.55052 -78.53948 34072 ft 441 kts 320°
2026-05-04 19:54 34.60100 -78.58165 34075 ft 440 kts 320°
2026-05-04 19:54 34.65115 -78.62361 34071 ft 440 kts 320°
2026-05-04 19:55 34.70156 -78.66585 34072 ft 440 kts 320°
2026-05-04 19:55 34.75197 -78.70816 34070 ft 440 kts 320°
2026-05-04 19:56 34.80231 -78.75046 34053 ft 439 kts 320°
2026-05-04 19:56 34.85257 -78.79277 34050 ft 438 kts 320°
2026-05-04 19:57 34.90233 -78.83471 34053 ft 438 kts 320°
2026-05-04 19:57 34.95234 -78.87694 34058 ft 437 kts 320°
2026-05-04 19:58 35.00227 -78.91916 34079 ft 437 kts 320°
2026-05-04 19:58 35.05227 -78.96150 34023 ft 437 kts 320°
2026-05-04 19:59 35.10208 -79.00375 34017 ft 436 kts 320°
2026-05-04 19:59 35.15160 -79.04581 34019 ft 436 kts 320°
2026-05-04 20:00 35.20131 -79.08810 34035 ft 435 kts 320°
2026-05-04 20:00 35.25103 -79.13046 34034 ft 435 kts 320°
2026-05-04 20:01 35.30064 -79.17280 34029 ft 435 kts 320°
2026-05-04 20:01 35.34990 -79.21489 34039 ft 434 kts 320°
2026-05-04 20:02 35.39902 -79.25694 34050 ft 434 kts 320°
2026-05-04 20:02 35.44847 -79.29932 34041 ft 433 kts 320°
2026-05-04 20:03 35.49789 -79.34175 34044 ft 433 kts 320°
2026-05-04 20:03 35.54714 -79.38410 34024 ft 433 kts 320°
2026-05-04 20:04 35.59647 -79.42658 34044 ft 433 kts 320°
2026-05-04 20:04 35.64546 -79.46884 34035 ft 433 kts 320°
2026-05-04 20:05 35.69477 -79.51144 34043 ft 433 kts 320°
2026-05-04 20:05 35.74408 -79.55410 34031 ft 433 kts 320°
2026-05-04 20:06 35.79336 -79.59681 34036 ft 433 kts 320°
2026-05-04 20:06 35.84280 -79.63934 34036 ft 433 kts 320°
2026-05-04 20:07 35.89211 -79.68094 34017 ft 432 kts 320°
2026-05-04 20:07 35.94163 -79.72274 34016 ft 431 kts 320°
2026-05-04 20:08 35.99109 -79.76464 34015 ft 430 kts 320°
2026-05-04 20:08 36.04036 -79.80652 34021 ft 430 kts 320°
2026-05-04 20:09 36.08962 -79.84847 34028 ft 429 kts 320°
2026-05-04 20:09 36.13838 -79.89005 34022 ft 428 kts 320°
2026-05-04 20:10 36.18730 -79.93183 34016 ft 427 kts 320°
2026-05-04 20:10 36.23610 -79.97358 34016 ft 426 kts 320°
2026-05-04 20:11 36.28485 -80.01535 34019 ft 426 kts 320°
2026-05-04 20:11 36.33359 -80.05718 34041 ft 426 kts 320°
2026-05-04 20:12 36.38196 -80.09874 34016 ft 426 kts 320°
2026-05-04 20:12 36.43060 -80.14061 34007 ft 425 kts 320°
2026-05-04 20:13 36.47911 -80.18243 34005 ft 424 kts 320°
2026-05-04 20:13 36.52748 -80.22418 34005 ft 422 kts 320°
2026-05-04 20:14 36.57565 -80.26584 34011 ft 422 kts 320°
2026-05-04 20:14 36.62347 -80.30726 34017 ft 421 kts 320°
2026-05-04 20:15 36.67160 -80.34890 34009 ft 420 kts 321°
2026-05-04 20:15 36.71976 -80.38992 34004 ft 419 kts 319°
2026-05-04 20:16 36.76738 -80.43200 34000 ft 420 kts 319°
2026-05-04 20:16 36.81516 -80.47393 33999 ft 421 kts 320°
2026-05-04 20:17 36.86312 -80.51591 34050 ft 421 kts 320°
2026-05-04 20:17 36.91125 -80.55792 34011 ft 422 kts 320°
2026-05-04 20:18 36.95933 -80.59998 34007 ft 422 kts 320°
2026-05-04 20:18 37.00734 -80.64209 34015 ft 421 kts 320°
2026-05-04 20:19 37.05501 -80.68396 34016 ft 421 kts 320°
2026-05-04 20:19 37.10437 -80.72367 34011 ft 427 kts 329°
2026-05-04 20:20 37.15853 -80.75511 34023 ft 429 kts 330°
2026-05-04 20:20 37.21286 -80.78652 34020 ft 430 kts 329°
2026-05-04 20:21 37.26716 -80.81830 34003 ft 430 kts 329°
2026-05-04 20:21 37.34845 -80.86628 34006 ft 431 kts 329°
2026-05-04 20:22 37.40273 -80.89840 34017 ft 432 kts 330°
2026-05-04 20:22 37.45679 -80.93043 33996 ft 432 kts 330°
2026-05-04 20:23 37.51120 -80.96271 33997 ft 433 kts 330°
2026-05-04 20:23 37.56574 -80.99512 33988 ft 433 kts 330°
2026-05-04 20:24 37.62022 -81.02755 34008 ft 434 kts 330°
2026-05-04 20:24 37.67494 -81.06018 34004 ft 436 kts 330°
2026-05-04 20:25 37.72979 -81.09295 34009 ft 437 kts 330°
2026-05-04 20:25 37.78503 -81.12527 33994 ft 440 kts 334°
2026-05-04 20:26 37.84341 -81.14830 33995 ft 444 kts 339°
2026-05-04 20:26 37.90297 -81.16957 34005 ft 445 kts 340°
2026-05-04 20:27 37.96245 -81.19119 33971 ft 445 kts 339°
2026-05-04 20:27 38.02185 -81.21324 33925 ft 445 kts 339°
2026-05-04 20:28 38.08127 -81.23552 33913 ft 445 kts 339°
2026-05-04 20:28 38.14019 -81.25767 33918 ft 445 kts 339°
2026-05-04 20:29 38.19957 -81.28002 33926 ft 445 kts 339°
2026-05-04 20:29 38.25886 -81.30236 33926 ft 444 kts 339°
2026-05-04 20:30 38.31817 -81.32476 33905 ft 445 kts 339°
2026-05-04 20:30 38.37745 -81.34718 33910 ft 444 kts 340°
2026-05-04 20:31 38.43622 -81.36945 33899 ft 443 kts 340°
2026-05-04 20:31 38.49533 -81.39188 33902 ft 443 kts 340°
2026-05-04 20:32 38.55432 -81.41430 33901 ft 442 kts 340°
2026-05-04 20:32 38.61325 -81.43673 33909 ft 442 kts 340°
2026-05-04 20:33 38.67217 -81.45921 33893 ft 442 kts 340°
2026-05-04 20:33 38.73077 -81.48162 33894 ft 442 kts 340°
2026-05-04 20:34 38.78972 -81.50418 33897 ft 442 kts 340°
2026-05-04 20:34 38.84867 -81.52678 33906 ft 442 kts 340°
2026-05-04 20:35 38.90763 -81.54942 33891 ft 442 kts 340°
2026-05-04 20:35 38.96649 -81.57207 33896 ft 441 kts 340°
2026-05-04 20:36 39.02497 -81.59461 33884 ft 441 kts 340°
2026-05-04 20:36 39.08375 -81.61730 33904 ft 441 kts 340°
2026-05-04 20:37 39.14261 -81.64007 33878 ft 441 kts 340°
2026-05-04 20:37 39.20136 -81.66283 33881 ft 440 kts 340°
2026-05-04 20:38 39.25996 -81.68557 33887 ft 439 kts 340°
2026-05-04 20:38 39.31855 -81.70836 33887 ft 440 kts 340°
2026-05-04 20:39 39.37729 -81.73124 33878 ft 442 kts 340°
2026-05-04 20:39 39.43629 -81.75426 33871 ft 443 kts 340°
2026-05-04 20:40 39.49491 -81.77717 33871 ft 443 kts 340°
2026-05-04 20:40 39.55397 -81.80030 33869 ft 444 kts 340°
2026-05-04 20:41 39.61317 -81.82352 33861 ft 445 kts 340°
2026-05-04 20:41 39.67244 -81.84681 33852 ft 445 kts 340°
2026-05-04 20:42 39.73223 -81.86831 33843 ft 448 kts 346°
2026-05-04 20:42 39.79376 -81.87954 33852 ft 450 kts 350°
2026-05-04 20:43 39.85598 -81.88876 33835 ft 450 kts 350°
2026-05-04 20:43 39.91798 -81.89896 33847 ft 449 kts 349°
2026-05-04 20:44 39.97980 -81.90988 33839 ft 448 kts 349°
2026-05-04 20:44 40.04157 -81.92101 33848 ft 448 kts 349°
2026-05-04 20:45 40.10327 -81.93215 33826 ft 448 kts 349°
2026-05-04 20:45 40.16493 -81.94326 33832 ft 447 kts 349°
2026-05-04 20:46 40.22642 -81.95436 33832 ft 447 kts 349°
2026-05-04 20:46 40.28774 -81.96544 33825 ft 448 kts 349°
2026-05-04 20:47 40.34959 -81.97664 33828 ft 449 kts 349°
2026-05-04 20:47 40.41148 -81.98787 33828 ft 449 kts 349°
2026-05-04 20:48 40.47352 -81.99915 33838 ft 450 kts 349°
2026-05-04 20:48 40.53553 -82.01044 33829 ft 450 kts 349°
2026-05-04 20:49 40.59630 -82.02639 33830 ft 447 kts 342°
2026-05-04 20:49 40.65627 -82.04831 33848 ft 447 kts 341°
2026-05-04 20:50 40.71639 -82.06991 33840 ft 448 kts 342°
2026-05-04 20:50 40.77674 -82.09073 33829 ft 448 kts 342°
2026-05-04 20:51 40.83710 -82.11137 33799 ft 448 kts 342°
2026-05-04 20:51 40.89755 -82.13211 33210 ft 447 kts 342°
2026-05-04 20:52 40.92771 -82.14248 32172 ft 450 kts 342°
2026-05-04 20:52 40.95794 -82.15288 31501 ft 447 kts 342°
2026-05-04 20:52 40.98779 -82.16314 30934 ft 441 kts 342°
2026-05-04 20:52 41.01740 -82.17333 30358 ft 437 kts 342°
2026-05-04 20:53 41.03682 -82.18002 29996 ft 434 kts 342°
2026-05-04 20:53 41.07524 -82.19327 29157 ft 428 kts 342°
2026-05-04 20:53 41.10394 -82.20319 28592 ft 423 kts 341°
2026-05-04 20:53 41.13226 -82.21298 28027 ft 418 kts 342°
2026-05-04 20:54 41.16026 -82.22268 27458 ft 414 kts 341°
2026-05-04 20:54 41.18793 -82.23227 26937 ft 409 kts 341°
2026-05-04 20:54 41.20596 -82.23851 26879 ft 399 kts 340°
2026-05-04 20:54 41.23135 -82.25108 26588 ft 383 kts 325°
2026-05-04 20:55 41.25250 -82.27181 26273 ft 375 kts 318°
2026-05-04 20:55 41.27304 -82.29374 25869 ft 382 kts 318°
2026-05-04 20:55 41.29387 -82.31599 25501 ft 387 kts 318°
2026-05-04 20:55 41.31491 -82.33834 25113 ft 386 kts 318°
2026-05-04 20:56 41.34263 -82.36760 24598 ft 383 kts 318°
2026-05-04 20:56 41.36344 -82.38949 24218 ft 380 kts 318°
2026-05-04 20:56 41.37744 -82.40421 23970 ft 379 kts 318°
2026-05-04 20:56 41.39809 -82.42592 23581 ft 377 kts 318°
2026-05-04 20:57 41.41832 -82.44723 23191 ft 375 kts 317°
2026-05-04 20:57 41.43874 -82.46873 22764 ft 373 kts 317°
2026-05-04 20:57 41.45904 -82.49013 22355 ft 370 kts 317°
2026-05-04 20:57 41.47915 -82.51134 21977 ft 368 kts 317°
2026-05-04 20:58 41.49910 -82.53239 21595 ft 365 kts 317°
2026-05-04 20:58 41.51893 -82.55334 21232 ft 363 kts 317°
2026-05-04 20:58 41.53866 -82.57419 20891 ft 361 kts 317°
2026-05-04 20:58 41.55828 -82.59495 20524 ft 359 kts 317°
2026-05-04 20:59 41.57781 -82.61564 20158 ft 358 kts 317°
2026-05-04 20:59 41.59727 -82.63628 19802 ft 356 kts 317°
2026-05-04 20:59 41.61663 -82.65682 19449 ft 355 kts 317°
2026-05-04 20:59 41.63552 -82.67689 19104 ft 354 kts 317°
2026-05-04 21:00 41.65477 -82.69735 18756 ft 353 kts 317°
2026-05-04 21:00 41.67388 -82.71766 18579 ft 347 kts 317°
2026-05-04 21:00 41.69274 -82.73773 18307 ft 347 kts 317°
2026-05-04 21:00 41.71164 -82.75787 17995 ft 348 kts 317°
2026-05-04 21:01 41.73055 -82.77803 17617 ft 347 kts 316°
2026-05-04 21:01 41.74931 -82.79817 17252 ft 343 kts 314°
2026-05-04 21:01 41.76623 -82.82023 16919 ft 337 kts 308°
2026-05-04 21:01 41.78184 -82.84355 16573 ft 334 kts 307°
2026-05-04 21:02 41.79709 -82.86685 16227 ft 332 kts 307°
2026-05-04 21:02 41.81234 -82.88990 15891 ft 329 kts 307°
2026-05-04 21:02 41.82742 -82.91240 15570 ft 327 kts 307°
2026-05-04 21:02 41.84267 -82.93489 15248 ft 325 kts 307°
2026-05-04 21:03 41.85779 -82.95708 14983 ft 318 kts 307°
2026-05-04 21:03 41.87265 -82.97886 14608 ft 315 kts 307°
2026-05-04 21:03 41.88733 -83.00045 14208 ft 312 kts 307°
2026-05-04 21:03 41.90189 -83.02200 13777 ft 310 kts 307°
2026-05-04 21:04 41.91633 -83.04343 13383 ft 309 kts 307°
2026-05-04 21:04 41.93067 -83.06473 12935 ft 307 kts 306°
2026-05-04 21:04 41.94494 -83.08592 12524 ft 305 kts 306°
2026-05-04 21:04 41.95913 -83.10701 12108 ft 303 kts 306°
2026-05-04 21:05 41.97321 -83.12797 11692 ft 302 kts 306°
2026-05-04 21:05 41.98711 -83.14866 11289 ft 303 kts 306°
2026-05-04 21:05 42.00112 -83.16951 11117 ft 297 kts 306°
2026-05-04 21:05 42.01485 -83.18992 10944 ft 289 kts 306°
2026-05-04 21:06 42.02809 -83.20963 10807 ft 280 kts 306°
2026-05-04 21:06 42.04095 -83.22876 10608 ft 273 kts 306°
2026-05-04 21:06 42.05384 -83.24765 10249 ft 273 kts 306°
2026-05-04 21:06 42.06674 -83.26594 10122 ft 267 kts 312°
2026-05-04 21:07 42.08314 -83.27813 9878 ft 278 kts 337°
2026-05-04 21:07 42.10276 -83.28048 9577 ft 291 kts
2026-05-04 21:07 42.12202 -83.27093 9273 ft 300 kts 24°
2026-05-04 21:07 42.13982 -83.25700 8942 ft 300 kts 26°
2026-05-04 21:08 42.15769 -83.24258 8617 ft 300 kts 26°
2026-05-04 21:08 42.17539 -83.22840 8462 ft 292 kts 25°
2026-05-04 21:08 42.19268 -83.21470 8324 ft 284 kts 25°
2026-05-04 21:08 42.20949 -83.20148 8212 ft 275 kts 25°
2026-05-04 21:09 42.22583 -83.18869 8033 ft 270 kts 26°
2026-05-04 21:09 42.24189 -83.17593 7835 ft 265 kts 26°
2026-05-04 21:09 42.25766 -83.16322 7661 ft 263 kts 26°
2026-05-04 21:09 42.27332 -83.15058 7506 ft 261 kts 26°
2026-05-04 21:10 42.28859 -83.13825 7388 ft 258 kts 25°
2026-05-04 21:10 42.30406 -83.12578 7195 ft 261 kts 26°
2026-05-04 21:10 42.31975 -83.11314 7001 ft 264 kts 26°
2026-05-04 21:10 42.33569 -83.10081 6816 ft 263 kts 23°
2026-05-04 21:11 42.35175 -83.08934 6630 ft 261 kts 22°
2026-05-04 21:11 42.36776 -83.07797 6456 ft 260 kts 23°
2026-05-04 21:11 42.38404 -83.06791 6271 ft 254 kts 10°
2026-05-04 21:11 42.40107 -83.06584 6101 ft 239 kts 343°
2026-05-04 21:12 42.41632 -83.07266 5966 ft 228 kts 322°
2026-05-04 21:12 42.42856 -83.08534 5828 ft 224 kts 308°
2026-05-04 21:12 42.43760 -83.10204 5685 ft 216 kts 289°
2026-05-04 21:12 42.44197 -83.12108 5541 ft 210 kts 273°
2026-05-04 21:13 42.44202 -83.14049 5396 ft 205 kts 257°
2026-05-04 21:13 42.43814 -83.15870 5254 ft 200 kts 243°
2026-05-04 21:13 42.43042 -83.17406 5117 ft 197 kts 228°
2026-05-04 21:13 42.41993 -83.18593 4968 ft 199 kts 215°
2026-05-04 21:14 42.40773 -83.19543 4711 ft 205 kts 212°
2026-05-04 21:14 42.39532 -83.20455 4458 ft 206 kts 211°
2026-05-04 21:14 42.38298 -83.21365 4230 ft 198 kts 212°
2026-05-04 21:14 42.37110 -83.22246 3975 ft 191 kts 212°
2026-05-04 21:15 42.35964 -83.23092 3749 ft 184 kts 212°
2026-05-04 21:15 42.34864 -83.23902 3515 ft 176 kts 212°
2026-05-04 21:15 42.33815 -83.24676 3304 ft 170 kts 212°
2026-05-04 21:15 42.32798 -83.25426 3092 ft 163 kts 213°
2026-05-04 21:16 42.31810 -83.26153 2863 ft 158 kts 211°
2026-05-04 21:16 42.30889 -83.26831 2652 ft 145 kts 212°
2026-05-04 21:16 42.30045 -83.27454 2496 ft 141 kts 213°
2026-05-04 21:16 42.29188 -83.28087 2291 ft 139 kts 212°
2026-05-04 21:17 42.28361 -83.28694 2128 ft 131 kts 211°
2026-05-04 21:17 42.27548 -83.29266 1912 ft 133 kts 212°
2026-05-04 21:17 42.26728 -83.29840 1781 ft 132 kts 212°
2026-05-04 21:17 42.25917 -83.30442 1636 ft 134 kts 212°
2026-05-04 21:18 42.25086 -83.31062 1467 ft 138 kts 212°
2026-05-04 21:18 42.24259 -83.31705 1290 ft 138 kts 210°
2026-05-04 21:18 42.23416 -83.32334 1016 ft 138 kts 212°
2026-05-04 21:18 42.22584 -83.32964 826 ft 139 kts 211°
2026-05-04 21:19 42.21736 -83.33574 659 ft 134 kts 210°
2026-05-04 21:19 42.21026 -83.34104 646 ft 98 kts 208°
2026-05-04 21:19 42.20556 -83.34451 646 ft 57 kts 208°
2026-05-04 21:19 42.20314 -83.34629 646 ft 32 kts 209°
2026-05-04 21:20 42.20183 -83.34774 646 ft 23 kts 259°
2026-05-04 21:20 42.20182 -83.34995 649 ft 25 kts 266°
2026-05-04 21:20 42.20173 -83.35221 646 ft 23 kts 265°
2026-05-04 21:20 42.20172 -83.35432 646 ft 23 kts 269°
2026-05-04 21:21 42.20167 -83.35641 645 ft 22 kts 267°
2026-05-04 21:21 42.20165 -83.35843 645 ft 21 kts 268°
2026-05-04 21:21 42.20163 -83.35982 645 ft 9 kts 276°
2026-05-04 21:21 42.20211 -83.36019 645 ft 9 kts
2026-05-04 21:22 42.20268 -83.36012 645 ft 7 kts 17°
2026-05-04 21:22 42.20312 -83.35986 646 ft 6 kts 26°
2026-05-04 21:22 42.20316 -83.35985 645 ft 1 kts 11°
2026-05-04 21:23 42.20338 -83.36000 645 ft 7 kts 316°
2026-05-04 21:23 42.20360 -83.36049 647 ft 6 kts 298°
2026-05-04 21:23 42.20370 -83.36073 647 ft 0 kts 298°
2026-05-04 21:23 42.20370 -83.36074 647 ft 0 kts 298°